Home > Time Zones > World Clock > Weather > U.S.A. > Adak > Past weeks

Flag for U.S.A. Weather past 2 weeks in Adak, Alaska, U.S.A.

Now
41 °F

Broken clouds.


Feels Like: 33 °F
Forecast: 42 / 47 °F
Wind: 14 mph from Northwest

Location: Adak

Current Time: Oct 20, 2014 at 7:52:14 PM

Latest Report: Oct 20, 2014 at 7:16 PM


Visibility: 9 mi

Pressure: 30.02 "Hg

Humidity: 61%

Dew point: 28 °F

Location of AdakLocation

Historic Weather in Adak — Graph

°F

Adak temperature yesterday

Maximum temperature yesterday: 52 °F (at 4:36 PM)
Minimum temperature yesterday: 43 °F (at 8:36 AM)
Average temperature yesterday: 46 °F

Past Weeks' High & Low Weather Summary

 TemperatureHumidityPressure
High52 °F (Oct 5, 11:56 PM)87% (Oct 6, 6:36 AM)30.49 "Hg (Oct 6, 6:36 AM)
Low28 °F (Oct 13, 6:16 AM)43% (Oct 12, 6:36 PM)28.95 "Hg (Oct 8, 5:56 AM)
Average44 °F72%29.71 "Hg
* Reported Oct 5 6:16 PM — Oct 20 6:16 PM, Adak, Weather by CustomWeather, © 2014

Note: Actual official high and low records may vary slightly from our data, if they occured in-between our weather recording intervals... More about our weather records

Advertising

Adak weather history for previous 24 hours

 ConditionsComfort  
Time TempWeatherWind HumidityBarometerVisibility
6:16 PM
Oct 20
43 °FPassing clouds.15 mph53%30.00 "Hg10 mi
5:56 PM43 °FSunny.15 mph53%30.00 "Hg10 mi
5:36 PM43 °FScattered clouds.10 mph53%29.99 "Hg10 mi
5:16 PM43 °FPartly sunny.12 mph57%29.99 "Hg10 mi
4:56 PM41 °FPartly sunny.13 mph57%29.99 "Hg10 mi
4:36 PM41 °FMore clouds than sun.14 mph61%29.97 "Hg10 mi
4:16 PM43 °FOvercast.17 mph61%29.97 "Hg10 mi
3:56 PM41 °FMostly cloudy.17 mph61%29.96 "Hg10 mi
3:36 PM43 °FMore clouds than sun.21 mph61%29.96 "Hg10 mi
3:16 PM43 °FOvercast.16 mph57%29.95 "Hg10 mi
2:56 PM43 °FMore clouds than sun.18 mph61%29.94 "Hg10 mi
2:36 PM43 °FOvercast.10 mph61%29.94 "Hg10 mi
1:56 PM43 °FMore clouds than sun.12 mph61%29.93 "Hg10 mi
1:36 PM43 °FMore clouds than sun.12 mph61%29.92 "Hg10 mi
1:16 PM41 °FMore clouds than sun.14 mph66%29.92 "Hg10 mi
12:56 PM43 °FMostly cloudy.12 mph57%29.91 "Hg10 mi
12:36 PM43 °FOvercast.14 mph57%29.90 "Hg10 mi
12:16 PM43 °FOvercast.9 mph57%29.90 "Hg10 mi
11:56 AM43 °FOvercast.15 mph61%29.90 "Hg10 mi
11:36 AM43 °FOvercast.14 mph57%29.89 "Hg10 mi
11:16 AM41 °FPartly sunny.17 mph66%29.88 "Hg10 mi
10:56 AM39 °FScattered clouds.15 mph65%29.86 "Hg10 mi
10:36 AM39 °FPartly sunny.10 mph65%29.86 "Hg10 mi
10:16 AM41 °FMostly cloudy.17 mph61%29.84 "Hg10 mi
9:56 AM39 °FOvercast.13 mph65%29.83 "Hg10 mi
9:36 AM39 °FOvercast.15 mph65%29.81 "Hg10 mi
8:56 AM37 °FPassing clouds.12 mph60%29.79 "Hg10 mi
8:36 AM39 °FPassing clouds.15 mph61%29.78 "Hg10 mi
8:16 AM39 °FPassing clouds.14 mph65%29.76 "Hg10 mi
7:56 AM39 °FPassing clouds.15 mph65%29.75 "Hg10 mi
7:36 AM39 °FMostly cloudy.16 mph70%29.74 "Hg10 mi
7:16 AM41 °FMostly cloudy.15 mph70%29.73 "Hg10 mi
6:56 AM41 °FMostly cloudy.15 mph66%29.71 "Hg10 mi
6:36 AM39 °FOvercast.20 mph70%29.70 "Hg10 mi
6:16 AM39 °FMostly cloudy.16 mph81%29.69 "Hg10 mi
5:56 AM41 °FOvercast.22 mph76%29.68 "Hg10 mi
5:36 AM41 °FMostly cloudy.16 mph76%29.68 "Hg10 mi
4:56 AM41 °FOvercast.16 mph81%29.65 "Hg4 mi
4:36 AM41 °FMostly cloudy.18 mph81%29.64 "Hg5 mi
4:16 AM41 °FOvercast.15 mph81%29.63 "Hg5 mi
3:56 AM43 °FOvercast.18 mph76%29.61 "Hg5 mi
3:36 AM43 °FMostly cloudy.23 mph76%29.60 "Hg5 mi
2:56 AM43 °FOvercast.15 mph81%29.58 "Hg4 mi
2:36 AM43 °FOvercast.13 mph81%29.57 "Hg5 mi
2:16 AM43 °FMostly cloudy.15 mph81%29.55 "Hg10 mi
1:56 AM43 °FMostly cloudy.16 mph81%29.55 "Hg9 mi
1:36 AM43 °FOvercast.15 mph81%29.54 "Hg4 mi
1:16 AM43 °FLow clouds.18 mph81%29.53 "Hg7 mi
12:56 AM43 °FMostly cloudy.14 mph87%29.53 "Hg5 mi
12:36 AM43 °FMostly cloudy.No wind81%29.52 "Hg7 mi
11:56 PM
Oct 19
45 °FOvercast.No wind76%29.51 "Hg10 mi
11:36 PM45 °FMostly cloudy.No wind76%29.50 "Hg10 mi
11:16 PM45 °FOvercast.No wind76%29.50 "Hg10 mi
10:56 PM45 °FMostly cloudy.3 mph76%29.50 "Hg8 mi
10:36 PM45 °FOvercast.3 mph76%29.50 "Hg10 mi
10:16 PM45 °FMostly cloudy.No wind76%29.50 "Hg10 mi
9:56 PM45 °FMostly cloudy.5 mph76%29.50 "Hg10 mi
9:36 PM45 °FMostly cloudy.3 mph76%29.50 "Hg8 mi
8:56 PM45 °FMostly cloudy.No wind76%29.49 "Hg10 mi
8:36 PM46 °FMostly cloudy.3 mph71%29.48 "Hg10 mi
7:56 PM46 °FPartly sunny.3 mph71%29.47 "Hg10 mi
Weather by CustomWeather, © 2014

See weather overviewHow to use our weather pages